Time,TemperatureF,DewpointF,PressureIn,WindDirection,WindDirectionDegrees,WindSpeedMPH,WindSpeedGustMPH,Humidity,HourlyPrecipIn,Conditions,Clouds,dailyrainin,SoftwareType,DateUTC
2013-03-01 00:02:00,38.0,29.0,30.06,WNW,299,3.0,-999.0,69,-99.99,,,0.00,,2013-03-01 06:02:00,
2013-03-01 00:11:00,38.0,29.0,30.06,WNW,299,3.0,-999.0,69,-99.99,,,0.00,,2013-03-01 06:11:00,
2013-03-01 00:22:00,38.0,29.0,30.06,WNW,302,2.0,-999.0,70,-99.99,,,0.00,,2013-03-01 06:22:00,
2013-03-01 00:32:00,38.0,29.0,30.06,WNW,301,3.0,-999.0,71,-99.99,,,0.00,,2013-03-01 06:32:00,
2013-03-01 00:42:00,38.0,29.0,30.06,WNW,301,3.0,-999.0,71,-99.99,,,0.00,,2013-03-01 06:42:00,
2013-03-01 00:52:00,38.0,29.0,30.06,WNW,302,2.0,-999.0,71,-99.99,,,0.00,,2013-03-01 06:52:00,
2013-03-01 01:01:00,38.0,29.0,30.06,NW,310,3.0,-999.0,71,-99.99,,,0.00,,2013-03-01 07:01:00,
2013-03-01 01:11:00,38.0,29.0,30.06,NW,310,3.0,-999.0,71,-99.99,,,0.00,,2013-03-01 07:11:00,
2013-03-01 01:22:00,38.0,30.0,30.05,NW,312,2.0,-999.0,72,-99.99,,,0.00,,2013-03-01 07:22:00,
2013-03-01 01:32:00,38.0,30.0,30.05,WNW,296,3.0,-999.0,72,-99.99,,,0.00,,2013-03-01 07:32:00,
2013-03-01 01:42:00,38.0,30.0,30.05,WNW,296,3.0,-999.0,72,-99.99,,,0.00,,2013-03-01 07:42:00,
2013-03-01 01:52:00,38.0,30.0,30.05,WNW,286,2.0,-999.0,73,-99.99,,,0.00,,2013-03-01 07:52:00,
2013-03-01 02:01:00,38.0,30.0,30.05,West,277,4.0,-999.0,73,-99.99,,,0.00,,2013-03-01 08:01:00,
2013-03-01 02:11:00,38.0,30.0,30.05,West,277,4.0,-999.0,73,-99.99,,,0.00,,2013-03-01 08:11:00,
2013-03-01 02:22:00,38.0,30.0,30.05,WNW,303,4.0,-999.0,73,-99.99,,,0.00,,2013-03-01 08:22:00,
2013-03-01 02:32:00,38.0,30.0,30.06,WNW,297,5.0,-999.0,74,-99.99,,,0.00,,2013-03-01 08:32:00,
2013-03-01 02:42:00,38.0,30.0,30.06,WNW,297,5.0,-999.0,74,-99.99,,,0.00,,2013-03-01 08:42:00,
2013-03-01 02:52:00,38.0,31.0,30.06,WNW,283,4.0,-999.0,75,-99.99,,,0.00,,2013-03-01 08:52:00,
2013-03-01 03:02:00,38.0,31.0,30.05,West,274,2.0,-999.0,77,-99.99,,,0.00,,2013-03-01 09:02:00,
2013-03-01 03:12:00,38.0,31.0,30.05,West,274,2.0,-999.0,77,-99.99,,,0.00,,2013-03-01 09:12:00,
2013-03-01 03:22:00,38.0,31.0,30.05,West,274,2.0,-999.0,77,-99.99,,,0.00,,2013-03-01 09:22:00,
2013-03-01 03:32:00,37.0,30.0,30.05,NW,305,2.0,-999.0,77,-99.99,,,0.00,,2013-03-01 09:32:00,
2013-03-01 03:42:00,37.0,30.0,30.05,NW,305,2.0,-999.0,77,-99.99,,,0.00,,2013-03-01 09:42:00,
2013-03-01 03:52:00,37.0,31.0,30.05,WNW,298,2.0,-999.0,78,-99.99,,,0.00,,2013-03-01 09:52:00,
2013-03-01 04:02:00,37.0,31.0,30.05,WNW,297,3.0,-999.0,78,-99.99,,,0.00,,2013-03-01 10:02:00,
2013-03-01 04:11:00,37.0,31.0,30.05,WNW,297,3.0,-999.0,78,-99.99,,,0.00,,2013-03-01 10:11:00,
2013-03-01 04:22:00,37.0,31.0,30.05,NW,309,3.0,-999.0,78,-99.99,,,0.00,,2013-03-01 10:22:00,
2013-03-01 04:32:00,37.0,31.0,30.05,WNW,294,3.0,-999.0,78,-99.99,,,0.00,,2013-03-01 10:32:00,
2013-03-01 04:42:00,37.0,31.0,30.05,WNW,294,3.0,-999.0,78,-99.99,,,0.00,,2013-03-01 10:42:00,
2013-03-01 04:52:00,37.0,31.0,30.05,WNW,301,2.0,-999.0,78,-99.99,,,0.00,,2013-03-01 10:52:00,
2013-03-01 05:01:00,37.0,31.0,30.05,WNW,301,2.0,-999.0,78,-99.99,,,0.00,,2013-03-01 11:01:00,
2013-03-01 05:11:00,37.0,31.0,30.05,WNW,301,2.0,-999.0,78,-99.99,,,0.00,,2013-03-01 11:11:00,
2013-03-01 05:22:00,37.0,31.0,30.06,WNW,289,3.0,-999.0,79,-99.99,,,0.00,,2013-03-01 11:22:00,
2013-03-01 05:32:00,37.0,31.0,30.06,WNW,289,1.0,-999.0,80,-99.99,,,0.00,,2013-03-01 11:32:00,
2013-03-01 05:42:00,37.0,31.0,30.06,WNW,289,1.0,-999.0,80,-99.99,,,0.00,,2013-03-01 11:42:00,
2013-03-01 05:52:00,37.0,31.0,30.06,WNW,289,1.0,-999.0,80,-99.99,,,0.00,,2013-03-01 11:52:00,
2013-03-01 06:01:00,37.0,31.0,30.06,West,264,2.0,-999.0,80,-99.99,,,0.00,,2013-03-01 12:01:00,
2013-03-01 06:11:00,37.0,31.0,30.06,West,264,2.0,-999.0,80,-99.99,,,0.00,,2013-03-01 12:11:00,
2013-03-01 06:21:00,37.0,32.0,30.06,West,275,2.0,-999.0,81,-99.99,,,0.00,,2013-03-01 12:21:00,
2013-03-01 06:32:00,37.0,32.0,30.06,West,276,2.0,-999.0,81,-99.99,,,0.00,,2013-03-01 12:32:00,
2013-03-01 06:42:00,37.0,32.0,30.06,West,276,2.0,-999.0,81,-99.99,,,0.00,,2013-03-01 12:42:00,
2013-03-01 06:52:00,37.0,32.0,30.06,West,276,1.0,-999.0,81,-99.99,,,0.00,,2013-03-01 12:52:00,
2013-03-01 07:01:00,37.0,32.0,30.06,West,276,1.0,-999.0,82,-99.99,,,0.00,,2013-03-01 13:01:00,
2013-03-01 07:11:00,37.0,32.0,30.06,West,276,1.0,-999.0,82,-99.99,,,0.00,,2013-03-01 13:11:00,
2013-03-01 07:21:00,37.0,32.0,30.07,West,276,1.0,-999.0,81,-99.99,,,0.00,,2013-03-01 13:21:00,
2013-03-01 07:32:00,37.0,32.0,30.07,West,276,1.0,-999.0,82,-99.99,,,0.00,,2013-03-01 13:32:00,
2013-03-01 07:41:00,37.0,32.0,30.07,West,276,1.0,-999.0,82,-99.99,,,0.00,,2013-03-01 13:41:00,
2013-03-01 07:52:00,37.0,32.0,30.07,West,276,1.0,-999.0,82,-99.99,,,0.00,,2013-03-01 13:52:00,
2013-03-01 08:01:00,37.0,32.0,30.09,WNW,282,3.0,-999.0,81,-99.99,,,0.00,,2013-03-01 14:01:00,
2013-03-01 08:11:00,37.0,32.0,30.09,WNW,282,3.0,-999.0,81,-99.99,,,0.00,,2013-03-01 14:11:00,
2013-03-01 08:21:00,38.0,33.0,30.09,WNW,284,2.0,-999.0,81,-99.99,,,0.00,,2013-03-01 14:21:00,
2013-03-01 08:32:00,38.0,32.0,30.09,WNW,291,3.0,-999.0,79,-99.99,,,0.00,,2013-03-01 14:32:00,
2013-03-01 08:41:00,38.0,32.0,30.09,WNW,291,3.0,-999.0,79,-99.99,,,0.00,,2013-03-01 14:41:00,
2013-03-01 08:52:00,38.0,32.0,30.09,WNW,282,3.0,-999.0,79,-99.99,,,0.00,,2013-03-01 14:52:00,
2013-03-01 09:01:00,38.0,32.0,30.09,WNW,301,4.0,-999.0,79,-99.99,,,0.00,,2013-03-01 15:01:00,
2013-03-01 09:11:00,38.0,32.0,30.09,West,272,4.0,-999.0,78,-99.99,,,0.00,,2013-03-01 15:11:00,
2013-03-01 09:21:00,38.0,32.0,30.09,West,272,4.0,-999.0,78,-99.99,,,0.00,,2013-03-01 15:21:00,
2013-03-01 09:32:00,38.0,31.0,30.09,NW,306,4.0,-999.0,76,-99.99,,,0.00,,2013-03-01 15:32:00,
2013-03-01 09:42:00,38.0,31.0,30.09,NW,306,4.0,-999.0,76,-99.99,,,0.00,,2013-03-01 15:42:00,
2013-03-01 09:52:00,39.0,32.0,30.09,WNW,298,4.0,-999.0,76,-99.99,,,0.00,,2013-03-01 15:52:00,
2013-03-01 10:01:00,39.0,32.0,30.09,WSW,247,4.0,-999.0,75,-99.99,,,0.00,,2013-03-01 16:01:00,
2013-03-01 10:11:00,39.0,32.0,30.09,WSW,247,4.0,-999.0,75,-99.99,,,0.00,,2013-03-01 16:11:00,
2013-03-01 10:21:00,39.0,31.0,30.09,WNW,291,5.0,-999.0,73,-99.99,,,0.00,,2013-03-01 16:21:00,
2013-03-01 10:32:00,39.0,31.0,30.09,NW,306,6.0,-999.0,73,-99.99,,,0.00,,2013-03-01 16:32:00,
2013-03-01 10:41:00,39.0,31.0,30.09,NW,306,6.0,-999.0,73,-99.99,,,0.00,,2013-03-01 16:41:00,
2013-03-01 10:51:00,40.0,32.0,30.09,West,278,4.0,-999.0,72,-99.99,,,0.00,,2013-03-01 16:51:00,
2013-03-01 11:01:00,40.0,32.0,30.09,West,261,4.0,-999.0,72,-99.99,,,0.00,,2013-03-01 17:01:00,
2013-03-01 11:11:00,40.0,32.0,30.09,West,261,4.0,-999.0,72,-99.99,,,0.00,,2013-03-01 17:11:00,
2013-03-01 11:21:00,40.0,31.0,30.09,West,268,5.0,-999.0,70,-99.99,,,0.00,,2013-03-01 17:21:00,
2013-03-01 11:32:00,40.0,31.0,30.08,WNW,290,4.0,-999.0,71,-99.99,,,0.00,,2013-03-01 17:32:00,
2013-03-01 11:41:00,40.0,31.0,30.08,WNW,290,4.0,-999.0,71,-99.99,,,0.00,,2013-03-01 17:41:00,
2013-03-01 11:52:00,40.0,31.0,30.08,NW,312,4.0,-999.0,69,-99.99,,,0.00,,2013-03-01 17:52:00,
2013-03-01 12:01:00,40.0,31.0,30.07,NNW,335,4.0,-999.0,71,-99.99,,,0.00,,2013-03-01 18:01:00,
2013-03-01 12:12:00,40.0,31.0,30.07,NNW,335,4.0,-999.0,71,-99.99,,,0.00,,2013-03-01 18:12:00,
2013-03-01 12:22:00,40.0,31.0,30.07,West,266,6.0,-999.0,71,-99.99,,,0.00,,2013-03-01 18:22:00,
2013-03-01 12:32:00,40.0,32.0,30.07,West,270,6.0,-999.0,72,-99.99,,,0.00,,2013-03-01 18:32:00,
2013-03-01 12:42:00,40.0,32.0,30.07,West,270,6.0,-999.0,72,-99.99,,,0.00,,2013-03-01 18:42:00,
2013-03-01 12:52:00,40.0,31.0,30.06,WSW,256,5.0,-999.0,71,-99.99,,,0.00,,2013-03-01 18:52:00,
2013-03-01 13:01:00,40.0,32.0,30.06,WSW,249,5.0,-999.0,74,-99.99,,,0.00,,2013-03-01 19:01:00,
2013-03-01 13:11:00,40.0,32.0,30.06,WSW,249,5.0,-999.0,74,-99.99,,,0.00,,2013-03-01 19:11:00,
2013-03-01 13:21:00,40.0,33.0,30.05,WNW,285,6.0,-999.0,75,-99.99,,,0.00,,2013-03-01 19:21:00,
2013-03-01 13:32:00,40.0,33.0,30.05,WNW,284,6.0,-999.0,75,-99.99,,,0.00,,2013-03-01 19:32:00,
2013-03-01 13:42:00,40.0,33.0,30.05,WNW,284,6.0,-999.0,75,-99.99,,,0.00,,2013-03-01 19:42:00,
2013-03-01 13:51:00,40.0,32.0,30.05,WNW,286,7.0,-999.0,73,-99.99,,,0.00,,2013-03-01 19:51:00,
2013-03-01 14:01:00,40.0,32.0,30.05,WNW,294,6.0,-999.0,73,-99.99,,,0.00,,2013-03-01 20:01:00,
2013-03-01 14:11:00,40.0,32.0,30.05,WNW,294,6.0,-999.0,73,-99.99,,,0.00,,2013-03-01 20:11:00,
2013-03-01 14:21:00,39.0,32.0,30.05,West,277,5.0,-999.0,77,-99.99,,,0.00,,2013-03-01 20:21:00,
2013-03-01 14:31:00,39.0,33.0,30.05,West,268,7.0,-999.0,79,-99.99,,,0.00,,2013-03-01 20:31:00,
2013-03-01 14:41:00,39.0,33.0,30.05,West,268,7.0,-999.0,79,-99.99,,,0.00,,2013-03-01 20:41:00,
2013-03-01 14:52:00,39.0,33.0,30.05,West,266,5.0,-999.0,80,-99.99,,,0.00,,2013-03-01 20:52:00,
2013-03-01 15:01:00,39.0,33.0,30.05,WSW,256,7.0,-999.0,80,-99.99,,,0.00,,2013-03-01 21:01:00,
2013-03-01 15:11:00,39.0,33.0,30.05,West,272,5.0,-999.0,80,-99.99,,,0.00,,2013-03-01 21:11:00,
2013-03-01 15:21:00,39.0,33.0,30.05,West,272,5.0,-999.0,80,-99.99,,,0.00,,2013-03-01 21:21:00,
2013-03-01 15:31:00,39.0,33.0,30.05,WNW,289,5.0,-999.0,79,-99.99,,,0.00,,2013-03-01 21:31:00,
2013-03-01 15:42:00,39.0,33.0,30.05,WNW,289,5.0,-999.0,79,-99.99,,,0.00,,2013-03-01 21:42:00,
2013-03-01 15:51:00,39.0,33.0,30.05,West,270,5.0,-999.0,80,-99.99,,,0.00,,2013-03-01 21:51:00,
2013-03-01 16:01:00,39.0,33.0,30.05,WSW,256,4.0,-999.0,80,-99.99,,,0.00,,2013-03-01 22:01:00,
2013-03-01 16:11:00,39.0,33.0,30.05,West,281,5.0,-999.0,80,-99.99,,,0.00,,2013-03-01 22:11:00,
2013-03-01 16:21:00,39.0,33.0,30.05,West,281,5.0,-999.0,80,-99.99,,,0.00,,2013-03-01 22:21:00,
2013-03-01 16:31:00,39.0,33.0,30.05,WNW,289,3.0,-999.0,80,-99.99,,,0.00,,2013-03-01 22:31:00,
2013-03-01 16:42:00,39.0,33.0,30.05,WNW,289,3.0,-999.0,80,-99.99,,,0.00,,2013-03-01 22:42:00,
2013-03-01 16:52:00,39.0,33.0,30.05,West,276,3.0,-999.0,79,-99.99,,,0.00,,2013-03-01 22:52:00,
2013-03-01 17:01:00,39.0,33.0,30.05,West,276,3.0,-999.0,79,-99.99,,,0.00,,2013-03-01 23:01:00,
2013-03-01 17:11:00,39.0,33.0,30.05,West,276,3.0,-999.0,79,-99.99,,,0.00,,2013-03-01 23:11:00,
2013-03-01 17:21:00,38.0,31.0,30.06,West,272,6.0,-999.0,77,-99.99,,,0.00,,2013-03-01 23:21:00,
2013-03-01 17:31:00,38.0,32.0,30.06,NW,308,5.0,-999.0,79,-99.99,,,0.00,,2013-03-01 23:31:00,
2013-03-01 17:41:00,38.0,32.0,30.06,NW,308,5.0,-999.0,79,-99.99,,,0.00,,2013-03-01 23:41:00,
2013-03-01 17:52:00,38.0,32.0,30.06,West,280,4.0,-999.0,80,-99.99,,,0.00,,2013-03-01 23:52:00,
2013-03-01 18:02:00,38.0,33.0,30.06,WNW,291,4.0,-999.0,81,-99.99,,,0.00,,2013-03-02 00:02:00,
2013-03-01 18:11:00,38.0,33.0,30.06,WNW,291,4.0,-999.0,81,-99.99,,,0.00,,2013-03-02 00:11:00,
2013-03-01 18:22:00,38.0,32.0,30.07,WNW,286,4.0,-999.0,80,-99.99,,,0.00,,2013-03-02 00:22:00,
2013-03-01 18:32:00,38.0,33.0,30.07,WNW,303,4.0,-999.0,81,-99.99,,,0.00,,2013-03-02 00:32:00,
2013-03-01 18:42:00,38.0,33.0,30.07,WNW,303,4.0,-999.0,81,-99.99,,,0.00,,2013-03-02 00:42:00,
2013-03-01 18:52:00,38.0,33.0,30.08,West,278,4.0,-999.0,83,-99.99,,,0.00,,2013-03-02 00:52:00,
2013-03-01 19:01:00,37.0,32.0,30.09,NW,309,3.0,-999.0,83,-99.99,,,0.00,,2013-03-02 01:01:00,
2013-03-01 19:11:00,37.0,32.0,30.09,NW,309,3.0,-999.0,83,-99.99,,,0.00,,2013-03-02 01:11:00,
2013-03-01 19:21:00,37.0,32.0,30.09,WNW,284,5.0,-999.0,83,-99.99,,,0.00,,2013-03-02 01:21:00,
2013-03-01 19:31:00,37.0,32.0,30.09,WNW,287,6.0,-999.0,83,-99.99,,,0.00,,2013-03-02 01:31:00,
2013-03-01 19:41:00,37.0,32.0,30.09,WNW,287,6.0,-999.0,83,-99.99,,,0.00,,2013-03-02 01:41:00,
2013-03-01 19:52:00,37.0,33.0,30.09,WNW,292,3.0,-999.0,85,-99.99,,,0.00,,2013-03-02 01:52:00,
2013-03-01 20:01:00,37.0,34.0,30.10,West,280,5.0,-999.0,87,-99.99,,,0.00,,2013-03-02 02:01:00,
2013-03-01 20:11:00,37.0,34.0,30.10,West,280,5.0,-999.0,87,-99.99,,,0.00,,2013-03-02 02:11:00,
2013-03-01 20:22:00,36.0,33.0,30.10,West,277,5.0,-999.0,89,-99.99,,,0.00,,2013-03-02 02:22:00,
2013-03-01 20:32:00,36.0,33.0,30.10,WNW,289,5.0,-999.0,90,-99.99,,,0.00,,2013-03-02 02:32:00,
2013-03-01 20:42:00,36.0,33.0,30.10,WNW,289,5.0,-999.0,90,-99.99,,,0.00,,2013-03-02 02:42:00,
2013-03-01 20:52:00,36.0,34.0,30.10,WNW,285,4.0,-999.0,91,-99.99,,,0.00,,2013-03-02 02:52:00,
2013-03-01 21:01:00,35.0,33.0,30.11,West,278,2.0,-999.0,93,-99.99,,,0.00,,2013-03-02 03:01:00,
2013-03-01 21:11:00,35.0,33.0,30.11,West,278,2.0,-999.0,93,-99.99,,,0.00,,2013-03-02 03:11:00,
2013-03-01 21:21:00,35.0,33.0,30.11,West,270,4.0,-999.0,93,-99.99,,,0.00,,2013-03-02 03:21:00,
2013-03-01 21:32:00,35.0,33.0,30.11,West,274,4.0,-999.0,94,-99.99,,,0.00,,2013-03-02 03:32:00,
2013-03-01 21:42:00,35.0,33.0,30.11,West,274,4.0,-999.0,94,-99.99,,,0.00,,2013-03-02 03:42:00,
2013-03-01 21:52:00,35.0,33.0,30.11,West,271,3.0,-999.0,94,-99.99,,,0.00,,2013-03-02 03:52:00,
2013-03-01 22:01:00,35.0,33.0,30.11,West,268,3.0,-999.0,94,-99.99,,,0.00,,2013-03-02 04:01:00,
2013-03-01 22:11:00,35.0,33.0,30.11,West,268,3.0,-999.0,94,-99.99,,,0.00,,2013-03-02 04:11:00,
2013-03-01 22:21:00,35.0,33.0,30.10,WNW,301,4.0,-999.0,94,-99.99,,,0.00,,2013-03-02 04:21:00,
2013-03-01 22:32:00,35.0,33.0,30.10,WNW,283,3.0,-999.0,94,-99.99,,,0.01,,2013-03-02 04:32:00,
2013-03-01 22:42:00,35.0,33.0,30.10,WNW,283,3.0,-999.0,94,-99.99,,,0.01,,2013-03-02 04:42:00,
2013-03-01 22:52:00,35.0,33.0,30.10,WSW,254,5.0,-999.0,94,-99.99,,,0.01,,2013-03-02 04:52:00,
2013-03-01 23:01:00,35.0,33.0,30.09,West,272,5.0,-999.0,94,-99.99,,,0.01,,2013-03-02 05:01:00,
2013-03-01 23:12:00,35.0,33.0,30.09,West,272,5.0,-999.0,94,-99.99,,,0.01,,2013-03-02 05:12:00,
2013-03-01 23:22:00,35.0,33.0,30.09,West,281,4.0,-999.0,94,-99.99,,,0.01,,2013-03-02 05:22:00,
2013-03-01 23:32:00,35.0,33.0,30.09,WNW,284,4.0,-999.0,94,-99.99,,,0.01,,2013-03-02 05:32:00,
2013-03-01 23:42:00,35.0,33.0,30.09,WNW,284,4.0,-999.0,94,-99.99,,,0.01,,2013-03-02 05:42:00,
2013-03-01 23:52:00,34.0,32.0,30.09,WNW,284,4.0,-999.0,94,-99.99,,,0.01,,2013-03-02 05:52:00,